Hourly Data Report for October 03, 2015

All times are specified in Local Standard Time (LST). Add 1 hour to adjust for Daylight Saving Time where and when it is observed.

BATHURST A
NEW BRUNSWICK

47°37'47.000" N
65°44'20.000" W
58.80 m
8100505
71574
ZBF

Download Data

Hourly Data (October 2015)
Hourly Data Report for October 3, 2015
Temp Definition
°C
Dew Point Temp Definition
°C
Rel Hum Definition
%
Wind Dir Definition
10's deg

Wind Spd Definition
km/h
Visibility Definition
km
Stn Press Definition
kPa
Hmdx Definition


Wind Chill Definition


Weather Definition


TIME
00:00 Legend Double Dagger 5.6 3.8 88 35 7 11.3 102.64     LegendNANA
01:00 Legend Double Dagger 5.5 3.5 87 34 9 11.3 102.64     LegendNANA
02:00 Legend Double Dagger 5.3 3.6 89 33 5 11.3 102.66     Cloudy
03:00 Legend Double Dagger 5.2 3.7 90 33 13 8.1 102.67     Rain Showers,Fog
04:00 Legend Double Dagger 5.2 4.2 93 33 9 4.8 102.69     Rain Showers,Fog
05:00 Legend Double Dagger 5.4 4.4 93 34 12 8.1 102.72     Rain Showers,Fog
06:00 Legend Double Dagger 5.5 4.5 93 34 11 4.8 102.77     Rain Showers,Fog
07:00 Legend Double Dagger 5.7 4.4 91 34 8 8.1 102.83     Rain Showers,Fog
08:00 Legend Double Dagger 5.9 4.6 91 35 8 8.1 102.92     Rain Showers,Fog
09:00 Legend Double Dagger 6.7 4.9 88 36 5 19.3 102.93     LegendNANA
10:00 Legend Double Dagger 8.2 3.5 72 1 13 19.3 102.94     LegendNANA
11:00 Legend Double Dagger 9.4 3.0 64 2 12 24.1 102.91     Mostly Cloudy
12:00 Legend Double Dagger 9.3 2.0 60 1 16 24.1 102.91     LegendNANA
13:00 Legend Double Dagger 10.4 1.8 55 3 12 24.1 102.90     LegendNANA
14:00 Legend Double Dagger 10.9 0.4 48 3 12 24.1 102.83     Mainly Clear
15:00 Legend Double Dagger 11.5 -0.6 43 1 10 24.1 102.79     LegendNANA
16:00 Legend Double Dagger 11.5 -0.9 42 3 10 24.1 102.75     LegendNANA
17:00 Legend Double Dagger 10.8 -0.6 45 33 5 24.1 102.76     Clear
18:00 Legend Double Dagger 8.1 2.8 69 28 4 24.1 102.73     LegendNANA
19:00 Legend Double Dagger 5.3 1.6 77 5 4 24.1 102.74     LegendNANA
20:00 Legend Double Dagger 4.8 2.0 82 1 4 24.1 102.77     Clear
21:00 Legend Double Dagger 4.8 0.6 74 36 2 24.1 102.79     LegendNANA
22:00 Legend Double Dagger 4.3 1.3 81 29 8 24.1 102.78     LegendNANA
23:00 Legend Double Dagger 3.9 0.6 79 30 9 24.1 102.80     Clear

Notes on Data Quality.

Legend

  • E = Estimated
  • M = Missing
  • NA = Not Available
  • ‡ = Partner data that is not subject to review by the National Climate Archives
Date modified: